Tracking 29892 objects as of 21-Nov-2024
HD Live streaming from Space Station
objects crossing your sky now

STARLINK-3756

Track STARLINK-3756 now!
10-day predictions
STARLINK-3756 is classified as:


NORAD ID: 52309
Int'l Code: 2022-041BA
Perigee: 546.0 km
Apogee: 547.7 km
Inclination: 53.2 °
Period: 95.4 minutes
Semi major axis: 6917 km
RCS: Unknown
Launch date: April 21, 2022
Source: United States (US)
Launch site: AIR FORCE EASTERN TEST RANGE (AFETR)
Your satellite tracking list
Your tracking list is empty




NASA's NSSDC Master Catalog

Two Line Element Set (TLE):
1 52309U 22041BA  24325.29133116  .00000593  00000-0  55347-4 0  9995
2 52309  53.2166  58.7743 0001253  95.3343 264.7792 15.08842529144242
Source of the keplerian elements: AFSPC